Location: Arena
(42.5007°N, 9.4650°E)
Time: 01:24:37
(UTC+00:00)

Daily predictions for brighter satellites

Satellite Brightness Start Highest point End
(mag) Time Altitude Azimuth Time Altitude Azimuth Time Altitude Azimuth
BREEZE-M R/B 4.4 00:04:51 39° NE 00:04:51 39° NE 00:10:04 10° E
SeaSat 1 3.7 00:03:44 10° N 00:08:06 32° NW 00:08:06 32° NW
USA 215 4.0 00:10:10 38° W 00:10:10 38° W 00:14:29 10° WNW
Cosmos 1943 Rocket 2.9 00:09:25 43° WNW 00:09:26 43° WNW 00:14:47 10° NNE
Cosmos 1607 4.1 00:11:32 63° ESE 00:11:32 63° ESE 00:17:43 10° NE
ATLAS 2AS CENTAUR R/B 3.2 00:06:00 10° NW 00:11:46 45° W 00:11:46 45° W
Cosmos 2298 Rocket 4.3 00:13:51 63° NE 00:13:51 63° NE 00:18:20 10° NNE
Cosmos 1461 4.1 00:15:16 46° NNE 00:15:16 46° NNE 00:18:37 10° NNE
Cosmos 2239 Rocket 4.4 00:09:58 10° N 00:16:15 82° W 00:16:15 82° W
SL-16 R/B 3.5 00:21:04 29° ESE 00:23:37 43° ENE 00:29:28 10° N
Cosmos 1833 4.4 00:19:54 10° NNW 00:25:38 65° ENE 00:26:12 61° E
Cosmos 1048 Rocket 4.2 00:21:45 10° NNW 00:26:21 67° NNW 00:26:21 67° NNW
Meteor 1-15 Rocket 4.3 00:21:29 10° N 00:27:08 69° ENE 00:27:18 69° E
Cosmos 2151 Rocket 4.4 00:33:03 10° N 00:36:57 49° NE 00:36:57 49° NE
Gbstr 26 Del rocket 4.0 00:31:34 10° NW 00:38:05 66° NNE 00:43:16 10° ESE
Okean 2 Rocket 3.9 00:33:48 10° N 00:37:10 49° NNE 00:37:10 49° NNE
BREEZE-M DEB (TANK) 4.1 00:39:13 53° ESE 00:39:13 53° ESE 00:48:47 10° ENE
Helios 1A 4.5 00:41:18 31° NNW 00:41:18 31° NNW 00:43:36 10° NNW
Cosmos 1656 Rocket 3.7 00:42:15 67° NW 00:42:15 67° NW 00:47:36 10° NNE
Cosmos 2344 4.5 00:33:52 10° NW 00:43:23 78° NE 00:56:46 10° SE
Cosmos 1339 Rocket 4.4 00:43:46 72° S 00:44:30 88° E 00:50:57 10° N
Cosmos 2150 Rocket 4.3 00:45:19 59° WNW 00:45:19 59° WNW 00:50:25 10° NNE
ISS -1.2 00:48:19 22° NE 00:48:19 22° NE 00:49:42 10° NE
Helios 1B rocket 3.5 00:43:21 10° NNE 00:46:30 42° ENE 00:46:30 42° ENE
Cosmos 1867 3.6 00:52:08 71° WNW 00:52:13 71° NW 00:57:42 10° NNE
Cosmos 1934 Rocket 3.9 00:46:22 10° NNW 00:52:27 63° W 00:52:36 63° W
UNK 4.1 00:53:30 57° E 00:53:39 57° ENE 00:58:10 10° N
RESURS DK-1 3.7 00:50:07 10° NNW 00:52:35 35° NNW 00:52:35 35° NNW
Cosmos 1727 Rocket 4.4 00:54:28 45° SE 00:56:05 58° E 01:02:17 10° NNE
CZ-2D R/B 2.1 00:52:29 10° NNE 00:57:57 73° ESE 00:58:21 69° SE
ATLAS CENTAUR R/B 2.4 01:02:36 38° NNE 01:02:36 38° NNE 01:05:03 10° NNE
COSMOS 2487 4.4 00:58:39 10° N 01:01:12 27° NE 01:01:12 27° NE
Cosmos 2221 Rocket 4.3 01:08:51 45° NW 01:08:51 45° NW 01:12:37 10° N
USA 281 3.3 01:09:03 52° WSW 01:09:20 52° WSW 01:15:45 10° NNW
USA 81 4.2 01:09:56 10° NNW 01:14:57 55° W 01:14:57 55° W
Cosmos 1707 3.6 01:20:58 43° E 01:20:58 43° E 01:24:32 10° NNE
Meteor 1-21 4.4 01:23:32 47° SSE 01:25:13 71° E 01:31:02 10° NNE
Cosmos 1125 Rocket 4.4 01:24:54 33° WNW 01:25:26 33° WNW 01:30:10 10° N
Meteor 2-10 4.0 01:20:12 10° N 01:25:42 85° E 01:27:05 52° SSE
IDEFIX/ARIANE 42P 3.9 01:25:50 10° NNE 01:30:34 33° E 01:33:19 21° SE
Cosmos 1400 Rocket 3.0 01:27:20 10° NNW 01:31:01 66° NW 01:31:01 66° NW
Resurs 1-4 Rocket 2.3 01:26:53 10° N 01:32:00 55° WNW 01:32:45 50° WSW
Cosmos 2369 Rocket 4.0 01:31:09 17° WNW 01:33:01 20° NW 01:37:03 10° N
ADEOS II 2.2 01:29:23 10° NNE 01:34:39 72° ESE 01:36:09 47° S
Cosmos 1975 Rocket 4.0 01:36:21 33° SE 01:37:42 43° E 01:41:50 10° NNE
Cosmos 1153 Rocket 4.5 01:32:22 10° NNW 01:38:42 70° W 01:40:56 42° SSW
Meteor 2-20 Rocket 4.4 01:39:37 44° SSW 01:41:42 81° W 01:47:55 10° N
CZ-3B R/B 4.2 01:28:49 25° SW 01:42:33 81° NW 01:48:05 10° NE
SL-19 R/B 4.3 01:38:23 10° N 01:44:07 64° WNW 01:45:37 46° SW
Tianhe-1 2.7 01:46:44 30° E 01:46:44 30° E 01:48:29 10° E
Lacrosse 5 2.2 01:45:07 44° S 01:46:12 53° SE 01:51:09 10° NE
Gblst 52 Del rocket 4.1 01:40:25 10° WNW 01:46:30 69° SW 01:52:01 10° SE
ARGOS Delta rocket 3.6 01:42:10 10° N 01:46:40 79° WNW 01:47:33 58° SSW
Cosmos 1470 2.9 01:46:56 10° NNW 01:50:26 56° WNW 01:50:26 56° WNW
Cosmos 1378 Rocket 4.3 01:51:11 37° WNW 01:51:11 37° WNW 01:55:12 10° N
Cosmos 2016 Rocket 4.4 01:47:45 10° N 01:54:00 62° E 02:00:08 10° SSE
BREEZE-M DEB (TANK) 3.3 01:53:33 41° SSW 01:55:16 64° SE 02:08:32 10° ENE
Cosmos 1459 Rocket 3.9 01:50:40 10° N 01:57:00 86° W 02:01:05 23° S
NOSS 2-1 (E) 4.4 01:51:53 10° NW 01:57:11 88° NE 02:04:47 10° SE
Okean 1 Rocket 3.5 01:56:12 10° NNW 02:00:21 41° W 02:00:22 41° W
Cosmos 1269 Rocket 4.3 01:55:41 10° NNW 02:00:43 46° WSW 02:01:41 41° SW
IRS-1D 3.5 01:56:49 10° N 02:02:09 79° WNW 02:04:22 37° SSW
Cosmos 2173 Rocket 3.9 01:56:37 10° N 02:02:46 77° W 02:06:41 24° S
CZ-4B R/B 4.4 01:59:22 10° NNE 02:04:04 43° E 02:07:41 16° SSE
Cosmos 1697 Rocket 4.4 02:00:23 10° SSE 02:04:57 27° ESE 02:09:34 10° NE
Cosmos 1726 2.7 02:01:28 10° NNW 02:04:34 40° WNW 02:04:34 40° WNW
Cosmos 44 Rocket 3.3 02:01:14 10° NW 02:06:25 66° WSW 02:11:27 10° SSE
SL-16 R/B 3.2 02:06:09 31° WSW 02:07:17 33° W 02:12:52 10° NNW
COSMOS 2455 3.4 02:01:36 10° NNW 02:07:33 60° NE 02:13:29 10° SE
Meteor 1-28 Rocket 3.0 02:07:32 55° SSW 02:08:14 74° W 02:11:56 10° NNW
Cosmos 1802 Rocket 3.9 02:03:21 10° N 02:09:32 85° W 02:14:33 16° S
Meteor 1-29 4.4 02:10:53 10° NNW 02:13:24 24° WNW 02:13:24 24° WNW
Cosmos 1626 3.3 02:13:45 18° SSE 02:16:05 39° E 02:19:33 10° NNE
Cosmos 2100 Rocket 4.1 02:12:03 10° NNW 02:18:08 55° W 02:21:53 24° SSW
Cosmos 2227 Rocket 3.2 02:14:20 10° NNW 02:19:49 49° ENE 02:25:16 10° SE
CZ-2C R/B 4.4 02:16:47 10° NE 02:20:58 26° E 02:25:12 10° SSE
GP-B 3.2 02:16:32 10° N 02:20:59 73° E 02:24:16 18° S
Helios 1B rocket 4.4 02:19:52 10° NNW 02:22:12 15° WNW 02:22:48 14° WNW
Cosmos 1953 2.2 02:18:26 10° N 02:22:26 86° E 02:25:13 19° S
ISS -1.3 02:21:16 10° WNW 02:23:46 19° N 02:26:16 10° NE
Cosmos 2297 Rocket 2.5 02:18:25 10° NNW 02:24:06 68° ENE 02:29:43 10° SSE
Gbstr 26 Del rocket 4.1 02:19:41 10° WNW 02:24:44 31° SW 02:28:57 10° S
BREEZE-M R/B 4.3 02:22:14 10° WNW 02:27:00 51° SSW 02:37:06 10° SE
Cosmos 2123 Rocket 3.9 02:23:04 21° SSW 02:27:23 79° W 02:33:37 10° N
ADEOS Rocket 3.5 02:22:13 11° S 02:28:55 62° W 02:36:31 10° NNW
Spot 1 4.3 02:30:01 22° S 02:32:40 54° W 02:37:18 10° NNW
Cosmos 371 Rocket 3.3 02:30:01 24° SSW 02:32:58 89° ESE 02:37:52 10° NNE
Cosmos 1025 Rocket 2.9 02:31:16 22° S 02:34:03 90° WNW 02:38:25 10° N
OAO 3 Rocket 4.0 02:33:09 27° SW 02:34:27 32° S 02:38:47 10° SE
Cosmos 332 Rocket 4.3 02:30:39 16° S 02:34:30 57° ESE 02:39:18 10° NNE
Cosmos 1544 Rocket 3.5 02:31:10 10° N 02:35:33 87° E 02:39:56 10° S
IRS-P3 4.1 02:30:19 10° NNE 02:35:42 82° WNW 02:39:42 18° SSW
CZ-2D R/B 4.0 02:33:58 10° NNW 02:37:21 17° WNW 02:39:40 13° W
ATLAS CENTAUR R/B 3.6 02:39:30 10° WNW 02:40:46 11° NW 02:42:04 10° NNW
CZ-2C R/B 2.3 02:40:56 19° S 02:41:06 19° S 02:43:31 10° ESE
Lacrosse 4 Rocket 3.6 02:37:54 10° SSE 02:41:25 23° ESE 02:44:56 10° NE
ARIANE 5 R/B 2.5 02:40:03 10° NNE 02:45:16 85° WNW 02:49:42 14° SSW
Cosmos 1455 Rocket 3.5 02:42:42 10° NNW 02:46:47 41° W 02:49:30 19° SSW
CZ-4C R/B 4.3 02:45:49 21° SSW 02:48:00 34° W 02:51:57 10° NNW
CZ-2D R/B 3.7 02:44:55 10° NNE 02:49:17 80° ESE 02:53:32 11° S
Cosmos 1536 Rocket 3.7 02:46:25 10° S 02:50:43 77° E 02:55:07 10° N
Cosmos 2219 3.2 02:49:23 10° NNW 02:55:06 79° WSW 03:00:49 10° SSE
Cosmos 1674 3.7 02:56:39 20° WSW 02:58:25 29° WNW 03:01:49 10° NNW
CZ-2C R/B 3.6 02:55:42 10° NNE 02:59:34 51° E 03:03:28 10° S
Cosmos 1140 Rocket 4.2 02:55:27 10° NNW 03:00:35 57° ENE 03:05:43 10° SE
Cosmos 1315 Rocket 4.2 03:00:09 10° NW 03:03:06 20° W 03:04:35 17° WSW
USA 129 1.8 03:01:39 13° S 03:03:44 58° W 03:06:00 10° NNW
IDEFIX/ARIANE 42P 3.5 03:05:27 10° N 03:10:05 32° WNW 03:14:07 13° SW
Timation 2 Rocket 3.9 03:06:01 10° NNW 03:11:55 61° WSW 03:17:49 10° S
Cosmos 1300 2.7 03:09:07 10° N 03:12:58 88° E 03:16:46 10° S
ADEOS II 3.9 03:10:34 10° NNW 03:13:43 16° WNW 03:16:53 10° W
TSX-5 3.5 03:11:20 10° NNW 03:14:41 82° WSW 03:18:41 10° SSE
Cosmos 2360 4.3 03:10:42 10° SSW 03:16:25 87° ESE 03:22:12 10° NNE
USA 276 2.3 03:14:03 15° WSW 03:16:34 65° NNW 03:19:44 10° NE
Cosmos 614 Rocket 4.2 03:12:42 10° NNW 03:17:33 46° WSW 03:22:23 10° S
Cosmos 1908 4.4 03:14:45 10° NW 03:17:54 24° W 03:21:02 10° SW
Cosmos 1624 Rocket 4.2 03:14:43 10° SSW 03:20:00 76° ESE 03:25:21 10° NNE
Cosmos 2228 3.8 03:16:52 10° N 03:21:04 56° E 03:25:15 10° SSE
Tianhe-1 1.1 03:18:39 10° W 03:21:46 63° S 03:24:51 10° ESE
BREEZE-M DEB (TANK) 1.4 03:19:51 12° WSW 03:22:44 83° NNW 03:24:55 10° ENE
SL-14 R/B 3.7 03:20:06 10° SSW 03:23:47 43° WNW 03:27:32 10° N
Cosmos 407 Rocket 3.5 03:19:35 10° NNW 03:24:56 78° WSW 03:30:17 10° SSE
Cosmos 1656 4.5 03:20:47 11° WSW 03:25:29 35° WNW 03:30:30 10° N
SL-08 R/B 4.0 03:22:55 10° SSW 03:27:12 33° W 03:31:28 10° NNW
Spot 4 Rocket 4.2 03:23:53 10° N 03:28:55 55° WNW 03:33:55 10° SSW
Lacrosse 5 3.0 03:24:43 10° W 03:29:22 34° NNW 03:34:01 10° NE
Cosmos 2263 Rocket 4.3 03:24:55 10° N 03:29:58 33° NE 03:35:02 10° ESE
CZ-3B R/B 4.4 03:30:18 10° S 03:32:21 12° SSE 03:35:02 10° SE
Cosmos 2285 Rocket 4.1 03:26:09 10° SSW 03:32:31 87° WNW 03:38:59 10° NNE
SL-24 R/B 3.7 03:33:11 10° SSE 03:36:49 90° SSW 03:40:38 10° NNW
Cosmos 2056 Rocket 3.5 03:34:44 10° SSW 03:39:50 73° WNW 03:44:57 10° NNE
